Location: Asheville, NC
(35.6000°N, 82.5500°W)
Time: 02:58:22
(UTC-05:00)

N. Korean satellite - Pass Details

Date: 13 December 2017
Orbit: 458 x 515 km, 97.2° (Epoch: 21 January)

Event Time Altitude Azimuth Distance (km) Brightness Sun altitude
Rises 06:11:23 0° 35° (NE) 2,611 10.5 -15.8°
Reaches altitude 10° 06:14:33 10° 65° (ENE) 1,708 10.0 -15.2°
Maximum altitude 06:16:13 13° 92° (E) 1,537 10.3 -14.8°
Drops below altitude 10° 06:17:52 10° 120° (ESE) 1,688 10.6 -14.5°
Sets 06:20:57 0° 150° (SSE) 2,548 11.0 -13.9°
